Hourly Data Report for October 03, 2014

All times are specified in Local Standard Time (LST). Add 1 hour to adjust for Daylight Saving Time where and when it is observed.

ARVIAT A
NUNAVUT

61°05'38.000" N
94°04'18.000" W
10.40 m
2300427
71174
YEK

Download Data

Hourly Data (October 2014)
Hourly Data Report for October 3, 2014
Temp Definition
°C
Dew Point Temp Definition
°C
Rel Hum Definition
%
Wind Dir Definition
10's deg

Wind Spd Definition
km/h
Visibility Definition
km
Stn Press Definition
kPa
Hmdx Definition


Wind Chill Definition


Weather Definition


TIME
00:00 Legend Double Dagger -1.7 -2.2 96 35 48 1.2 100.12   -10 Snow
01:00 Legend Double Dagger -1.9 -2.4 97 35 43 1.6 100.19   -10 Snow
02:00 Legend Double Dagger -2.1 -2.7 96 35 46 1.2 100.28   -11 Snow
03:00 Legend Double Dagger -2.3 -3.0 95 36 45 1.6 100.36   -11 Snow
04:00 Legend Double Dagger -2.3 -2.7 97 35 43 1.2 100.44   -11 Snow
05:00 Legend Double Dagger -2.6 -3.2 96 36 43 1.2 100.52   -11 Snow
06:00 Legend Double Dagger -2.6 -3.2 96 35 41 2.4 100.61   -11 Snow
07:00 Legend Double Dagger -2.6 -3.1 97 36 41 1.6 100.70   -11 Snow
08:00 Legend Double Dagger -2.5 -2.9 97 35 34 1.0 100.78   -10 Snow
09:00 Legend Double Dagger -2.6 -3.0 97 34 39 0.6 100.88   -11 Moderate Snow
10:00 Legend Double Dagger -2.8 -3.4 96 34 39 1.2 100.93   -11 Snow
11:00 Legend Double Dagger -2.7 -3.8 92 35 35 2.8 101.01   -11 Snow
12:00 Legend Double Dagger -2.6 -4.1 90 35 39 16.1 101.05   -11 LegendNANA
13:00 Legend Double Dagger -2.6 -4.0 90 35 37 16.1 101.10   -11 LegendNANA
14:00 Legend Double Dagger -2.7 -4.1 90 35 37 16.1 101.15   -11 LegendNANA
15:00 Legend Double Dagger -2.8 -4.2 90 35 37 16.1 101.20   -11 LegendNANA
16:00 Legend Double Dagger -2.9 -4.5 89 35 37 16.1 101.24   -11 LegendNANA
17:00 Legend Double Dagger -3.2 -4.6 90 35 41 16.1 101.30   -12 LegendNANA
18:00 Legend Double Dagger -3.5 -5.0 89 35 37 16.1 101.34   -12 LegendNANA
19:00 Legend Double Dagger -3.6 -5.4 87 36 34 16.1 101.41   -12 LegendNANA
20:00 Legend Double Dagger -3.6 -5.0 90 35 37 16.1 101.40   -12 LegendNANA
21:00 Legend Double Dagger -3.8 -5.5 88 36 34 16.1 101.37   -12 LegendNANA
22:00 Legend Double Dagger -4.0 -5.6 89 35 34 16.1 101.35   -12 LegendNANA
23:00 Legend Double Dagger -4.0 -5.6 88 35 35 16.1 101.30   -12 LegendNANA

Notes on Data Quality.

Legend

  • E = Estimated
  • M = Missing
  • NA = Not Available
  • ‡ = Partner data that is not subject to review by the National Climate Archives
Date modified: